Location: Newark
(45.2111°N, 1.9889°E)
Time: 10:45:43
(UTC+00:00)

X-37B - Visible Passes

Search period start: 11 August 2020 00:00
Search period end: 21 August 2020 00:00
Orbit: 385 x 388 km, 45.0° (Epoch: 09 August)

Date Brightness Start Highest point End Pass type
(mag) Time Alt. Az. Time Alt. Az. Time Alt. Az.
11 Aug 0.4 21:07:11 10° W 21:10:22 89° S 21:10:24 88° ESE visible
12 Aug 0.5 20:08:36 10° W 20:11:46 87° S 20:14:17 15° E visible
12 Aug 2.7 21:45:14 10° W 21:46:33 22° W 21:46:33 22° W visible
13 Aug 0.4 20:46:38 10° W 20:49:48 81° S 20:50:23 56° ESE visible
14 Aug 0.5 19:48:03 10° W 19:51:14 89° S 19:54:13 11° E visible
14 Aug 2.3 21:24:42 10° W 21:26:28 27° WSW 21:26:28 27° WSW visible
15 Aug 0.6 20:26:06 10° W 20:29:15 64° SSW 20:30:17 37° SE visible
16 Aug 0.6 19:27:30 10° W 19:30:41 81° S 19:33:51 10° E visible
16 Aug 2.1 21:04:16 10° W 21:06:22 26° SW 21:06:22 26° SW visible
17 Aug 1.1 20:05:35 10° W 20:08:37 45° SSW 20:10:13 23° SE visible
18 Aug 2.5 20:44:01 10° WSW 20:46:21 19° SSW 20:46:21 19° SSW visible
19 Aug 1.9 19:45:08 10° W 19:47:57 30° SSW 19:50:17 13° SSE visible
20 Aug 3.2 20:24:26 10° WSW 20:25:34 12° SW 20:26:31 10° SSW visible
